Bei uns kannst du mitfliegen! Besuche uns und lerne uns kennen - als Gast, Pilot oder jemand der es werden möchte.

Kölner Klub für Luftsport e.V.

KKFL.de

Ausbildung – Fliegen – Abenteuer

Ausbildung im KKFL

Ausbildung

Fliegen lernen im Verein
Der KKFL.de bietet eine effiziente, schnelle Ausbildung zur Pivatpilotenlizenz (PPL) in verschiedenen Ausprägungen an. Nach der Ausbildung können diverse Ergänzungen vom Verstellpropeller bis hin zu Nachtflug oder das Fliegen nach Instrumentenflugregeln (IFR) angeschlossen werden.
Fliegen im Verein ist günstig!

Unsere Flotte

Cessna 172 S

D-EOCD
Die Cessna ist als schnelle Schul- und Reisemaschine gleichsam beliebt. Unsere vereins-eigene Flotte sorgt für Abwechlung bei den Piloten und unsere Werft senkt Kosten. In der Ausbildung dürfen Schüler über 'ihre Maschine' mit entscheiden.

Cessna 172 R

D-EFPB

Piper PA 28 II

D-EFPA

Aquila A210

D-EAQJ

Piper PA 28 II

D-ELFF

Flugplatz Hangelar


[Quelle: ADDS]
METAR
EDDK 202350Z 21001KT CAVOK 17/16 Q1016 NOSIG =
EDDK 202300Z 2100/2206 VRB02KT CAVOK TEMPO 2100/2106 23005KT BECMG 2106/2109 27007KT BECMG 2113/2116 33006KT BECMG 2119/2122 VRB03KT
TAF
EDDK 202300Z 2100/2206 VRB02KT CAVOK TEMPO 2100/2106 23005KT BECMG 2106/2109 27007KT BECMG 2113/2116 33006KT BECMG 2119/2122 VRB03KT =
SR / SS: 03:42 / 19:33 UTC (EDKB 2019-07-21)

Du willst fliegen?

Während unserer Bürozeiten und auch dazwischen sind wir für deine Fragen da.
Bitte kontaktiere den Verein unter den angegebenen Adressen.
© 2018 - Kölner Klub für Luftsport e.V.
Bonn / Hangelar - EDKB - Germany